Temperature
13 13 13 13 13 14 14 14 14 14 14 14 14 14 14 14 15 15 15 15 15 15 15 15 15 15 15 15 14 14 14 14 14 14 14 14 14 15 15 15 15 15 15
13 13 13 13 13 14 14 14 14 14 14 14 14 14 14 15 15 15 15 15 15 15 15 15 15 14 14 14 14 14 14 14 14 14 14 14 14 14 14 14 14 14 14
13 13 13 13 13 14 14 14 14 14 14 14 14 14 14 14 14 15 15 15 15 15 15 15 15 14 14 14 14 14 14 14 14 14 14 14 14 14 14 14 14 14 14
13 13 13 13 13 13 13 14 14 14 14 14 14 14 14 14 14 14 15 15 15 15 15 14 14 14 14 14 14 14 14 14 14 14 14 14 14 14 13 13 13 13 14
12 13 12 12 13 13 13 13 13 14 14 14 14 14 14 14 14 14 14 14 14 14 14 14 14 14 14 14 14 14 14 14 14 14 14 13 13 13 13 13 13 13 13
12 12 12 12 12 12 12 12 13 13 13 13 13 14 14 14 14 14 14 14 14 14 14 14 14 14 14 14 14 14 14 14 14 14 13 13 13 13 13 13 13 13 13
12 12 12 12 12 12 12 12 12 12 12 12 13 13 13 13 13 14 14 14 14 14 14 14 14 14 14 14 14 14 14 14 14 13 13 13 13 13 13 13 13 13 12
12 12 12 12 12 11 12 12 11 11 12 12 12 12 12 13 13 13 13 14 14 14 14 14 14 14 14 14 14 14 14 14 13 13 13 13 13 13 13 13 12 12 12
12 12 11 11 11 11 11 11 11 11 11 11 11 12 12 12 12 13 13 13 13 13 13 13 14 14 14 14 14 14 14 13 13 13 13 13 13 13 13 13 12 12 12
12 12 11 11 11 11 11 10 10 11 11 11 11 11 12 12 12 12 12 13 13 13 13 13 13 13 13 13 13 13 13 13 13 13 13 13 13 12 12 12 12 12 12
12 12 11 11 11 11 11 10 10 10 10 10 11 11 11 11 12 12 12 12 12 12 12 12 12 13 13 13 13 13 13 13 13 13 13 12 12 12 12 12 12 12 11
12 12 11 11 11 11 11 11 10 10 11 10 11 11 11 11 11 11 11 12 12 12 12 12 12 12 12 12 13 13 13 12 12 12 12 12 12 12 12 11 11 11 11
12 12 11 11 11 11 11 11 10 10 11 10 10 10 10 10 10 11 11 11 11 11 11 11 11 11 12 12 12 12 12 12 12 12 12 11 11 11 11 11 11 11 10
12 12 11 11 11 11 11 11 10 10 10 10 10 10 10 10 10 10 10 11 11 11 11 11 11 11 11 11 11 11 11 11 11 11 11 11 10 10 10 10 10 10 10
12 12 11 11 11 11 10 10 10 10 10 10 10 10 10 10 10 10 10 10 10 10 10 10 10 10 10 10 10 10 10 10 10 10 10 10 10 10 10 10 10 10 10
12 12 11 11 11 11 10 10 10 10 10 10 10 9 9 9 9 9 10 10 10 10 10 10 10 10 10 10 10 10 10 10 10 9 10 10 9 9 9 9 9 9 9
13 12 12 11 11 11 10 10 10 10 10 10 10 9 9 9 9 9 9 9 10 10 10 10 9 9 9 9 9 9 9 9 9 9 9 9 9 9 9 9 9 8 8
13 12 12 11 11 11 11 10 10 10 10 10 10 9 9 9 9 9 9 9 10 10 9 9 9 9 9 9 9 9 8 8 8 8 8 8 8 8 8 8 8 8 8
13 12 12 12 11 11 11 11 11 10 10 10 10 10 9 9 9 9 9 9 9 9 9 9 9 8 8 8 8 8 8 8 8 8 7 7 7 7 7 7 7 7 7
13 13 12 12 12 11 11 11 11 11 10 10 10 10 9 9 9 9 9 9 9 9 9 9 9 8 8 8 8 8 8 8 8 7 7 7 7 7 7 7 7 7 7
13 13 12 12 12 12 11 11 11 11 11 10 10 10 9 9 9 9 9 9 9 9 9 9 9 9 8 8 8 8 8 7 7 7 6 6 6 6 6 6 6 6 6
13 13 13 12 12 12 11 11 11 11 11 11 10 10 10 9 9 9 9 9 9 9 9 9 9 8 8 8 8 8 8 7 7 7 6 6 6 6 6 6 6 6 6
13 13 13 13 12 12 12 11 11 11 11 11 11 10 10 10 9 9 9 9 9 9 9 9 9 9 9 9 8 8 8 8 7 7 6 6 6 6 6 6 6 6 6
13 13 13 13 13 12 12 12 12 11 11 11 11 11 10 10 10 9 9 9 9 9 9 9 9 9 9 9 9 9 8 8 7 7 7 6 6 6 6 6 6 6 6
13 13 13 13 13 13 12 12 12 12 11 11 11 11 10 10 10 10 9 9 9 9 9 9 9 9 9 9 9 9 8 8 8 7 7 7 6 6 6 6 6 6 6
13 13 13 13 13 13 12 12 12 12 12 11 11 11 11 10 10 10 10 9 9 9 9 9 9 9 9 9 9 9 9 8 8 7 7 7 7 6 6 6 6 6 5
Wind_Speed
9 8 8 8 8 7 6 5 4 2 2 1 0 1 1 2 2 2 3 4 4 4 4 4 4 3 3 3 3 3 3 4 4 3 2 2 1 1 2 6 9 10 12
8 8 8 8 8 8 7 6 6 5 4 3 2 2 2 2 1 1 1 3 3 4 4 4 3 3 3 2 2 3 3 3 4 3 2 1 1 1 2 2 4 7 9
8 8 9 9 9 9 9 8 7 6 5 5 5 4 4 3 2 2 2 2 2 1 2 4 3 4 3 2 2 2 2 2 2 2 1 1 1 0 0 1 1 1 4
8 9 10 10 9 9 9 9 9 7 7 7 6 5 4 4 4 3 3 3 2 2 1 3 3 5 4 4 3 2 2 2 2 2 1 0 0 1 1 0 1 1 2
9 10 10 9 9 9 10 9 9 9 8 7 7 6 5 5 5 4 3 3 3 3 2 1 2 4 5 4 3 3 3 2 2 2 1 1 1 1 0 0 1 1 1
8 9 8 9 9 10 9 9 9 9 8 8 8 8 8 7 8 7 3 2 2 3 2 1 1 2 3 4 5 5 5 4 3 2 1 1 1 1 0 0 0 1 2
7 8 8 8 8 8 8 9 8 7 7 8 7 7 6 8 10 9 6 3 3 3 2 2 2 3 3 3 3 4 3 3 4 4 3 2 2 2 1 0 0 1 1
6 7 7 7 7 7 8 8 7 6 6 6 7 7 7 9 13 11 8 5 4 4 3 3 3 3 2 3 4 3 2 2 1 2 2 2 2 2 3 2 2 0 1
6 6 6 6 7 8 8 7 6 6 7 6 6 7 8 9 14 12 8 5 5 5 4 4 4 3 3 5 5 5 3 2 3 4 4 3 3 4 3 3 2 3 2
4 4 4 5 6 7 7 7 6 6 6 7 8 8 8 9 14 13 9 4 5 5 5 5 6 5 6 6 5 5 4 1 2 3 4 5 5 5 4 3 2 2 1
3 4 5 5 5 6 7 6 6 7 7 7 8 8 9 10 12 15 11 5 4 5 5 4 4 7 8 8 6 4 3 3 3 4 4 4 4 4 4 3 2 2 2
4 5 5 6 6 6 7 7 7 7 7 7 7 8 8 8 11 12 13 10 7 6 5 3 4 9 10 10 7 7 9 7 5 5 5 4 4 3 3 3 5 5 4
5 4 4 5 6 6 7 7 6 7 6 6 7 7 7 7 9 15 14 13 11 7 6 8 10 11 10 9 12 12 9 6 5 5 4 3 2 3 3 3 4 6 7
6 4 3 4 5 6 6 5 6 6 6 6 6 6 6 7 7 7 7 7 8 8 7 9 12 13 11 10 9 8 6 5 5 4 3 3 3 4 4 3 3 3 4
5 4 3 3 3 4 4 4 4 4 4 4 3 4 5 6 7 9 6 6 5 5 5 6 7 7 7 7 6 6 6 6 5 4 4 4 4 4 4 4 3 4 4
4 4 3 3 2 2 3 3 5 4 7 7 6 4 4 6 8 11 13 13 12 10 8 6 7 6 7 6 6 6 6 6 5 5 4 4 4 4 4 4 4 4 4
4 4 3 3 3 3 2 2 1 3 5 7 8 8 8 9 11 11 12 14 14 12 9 7 6 6 6 6 5 5 5 5 4 5 5 4 4 4 4 4 4 4 4
4 4 4 3 3 3 3 2 2 1 1 2 5 7 8 10 11 10 10 9 8 8 6 6 5 5 5 5 5 4 4 5 5 5 5 4 4 4 4 4 4 4 3
4 3 3 3 3 2 2 2 2 2 2 0 1 3 5 7 10 11 8 6 5 5 5 5 4 4 4 4 4 4 4 4 4 4 4 4 4 4 4 4 4 5 4
3 5 5 3 2 2 2 2 3 3 2 2 1 0 1 3 4 4 4 4 4 3 3 3 3 3 3 4 4 4 4 4 5 4 4 4 4 4 4 4 3 3 3
3 3 4 3 3 3 3 4 4 4 4 3 2 2 3 3 2 2 2 2 2 2 2 2 2 2 3 3 3 4 4 3 4 4 4 3 3 3 3 3 3 3 3
3 3 3 3 3 3 4 4 4 4 5 5 3 2 4 3 3 2 2 1 1 1 1 2 2 1 1 1 2 2 3 3 3 4 4 3 3 3 3 3 3 3 3
2 3 3 3 4 5 4 4 4 5 5 5 5 4 4 3 4 3 3 3 2 2 3 3 2 1 1 2 2 2 2 1 1 2 3 3 3 3 2 3 3 3 3
2 3 4 4 4 4 5 5 5 5 6 6 6 5 5 5 5 5 4 3 3 3 4 4 3 3 4 3 3 2 1 0 1 1 2 1 2 2 2 3 3 3 3
3 3 4 4 5 5 5 5 5 5 6 6 6 6 5 5 5 5 5 4 4 4 5 5 5 5 5 4 3 2 1 1 1 1 1 1 2 2 2 3 3 3 3
4 4 4 4 5 5 6 6 6 6 6 6 6 6 6 6 6 6 5 5 5 4 5 6 7 7 7 5 3 2 1 1 1 1 2 3 3 2 3 2 3 3 4
Wind_Direction
17 20 27 28 30 37 40 32 28 32 59 92 165 219 233 224 211 187 193 189 176 175 175 173 178 171 166 172 170 165 171 169 204 254 262 272 261 239 191 205 218 224 229
15 21 25 25 28 31 27 24 25 32 35 37 37 48 47 49 57 111 177 161 159 163 162 157 170 158 157 168 164 173 180 180 184 225 267 280 260 240 208 211 220 226 227
19 21 26 25 25 25 22 22 24 30 33 36 46 55 54 53 55 62 93 100 101 132 154 160 166 154 163 165 165 176 182 174 172 188 241 283 306 341 97 284 256 253 239
26 28 31 27 24 24 25 27 28 35 40 41 51 57 55 50 44 37 54 72 63 60 118 165 170 170 170 162 154 159 147 128 130 144 176 313 327 350 78 342 321 309 282
31 33 30 26 28 29 30 31 34 39 43 42 51 49 48 52 42 39 42 64 72 74 72 109 158 168 168 160 152 147 134 123 110 104 93 47 5 19 337 315 289 309 299
36 33 28 30 33 31 27 29 34 35 36 46 49 48 45 41 36 40 45 62 80 97 105 105 126 126 129 126 134 140 141 137 140 136 137 159 247 232 205 155 44 11 319
36 30 26 29 31 26 27 31 30 28 35 40 38 39 38 26 29 34 43 66 72 84 107 125 118 93 93 101 110 110 96 115 142 152 157 194 206 206 163 136 192 215 256
35 29 26 28 27 21 24 25 22 22 30 35 35 30 28 24 29 34 46 59 71 75 84 101 104 90 93 131 123 109 90 63 100 126 153 182 193 182 172 180 192 176 334
35 30 28 31 29 25 23 16 15 26 34 37 36 33 30 19 26 34 51 63 72 66 67 76 87 86 92 124 120 115 91 42 60 97 105 97 88 108 121 94 64 61 29
35 35 35 38 37 30 22 19 21 32 38 40 40 33 29 23 24 33 47 65 72 67 60 55 58 73 85 103 112 120 117 85 83 81 62 53 53 64 79 90 115 94 76
59 51 43 38 42 36 31 28 29 36 41 41 39 31 28 24 22 28 39 60 76 76 66 50 42 65 77 86 96 105 124 124 101 93 74 61 49 45 40 46 72 111 112
88 69 52 42 43 43 41 34 30 33 39 35 34 29 23 20 21 26 40 58 74 81 70 49 54 72 73 71 73 79 89 92 87 82 73 59 49 36 30 40 56 64 73
110 95 72 58 47 42 46 40 33 30 37 35 35 31 19 15 16 26 37 50 59 69 67 66 69 69 68 63 61 67 69 72 78 78 73 55 33 29 40 47 42 54 53
127 127 105 83 62 48 44 42 45 36 35 35 34 29 18 16 15 13 22 38 50 60 62 62 64 63 61 55 51 50 52 62 77 77 68 45 37 44 43 42 44 39 47
135 142 129 113 99 74 58 43 42 30 26 39 30 24 25 20 7 25 43 42 48 67 71 59 54 53 54 49 46 46 46 50 56 50 58 57 48 49 38 32 48 51 58
142 152 154 144 132 116 100 54 27 32 33 41 42 41 21 26 36 52 54 55 57 72 74 66 60 57 58 53 51 45 42 43 43 51 54 56 55 53 46 37 49 61 62
159 168 166 163 164 167 161 137 68 8 19 26 28 36 42 43 52 62 64 59 53 64 72 68 63 58 55 52 51 52 45 33 38 49 52 50 52 52 53 48 47 55 55
155 167 168 176 178 183 190 187 172 148 32 355 3 23 38 47 53 59 65 66 53 52 63 66 62 57 54 54 50 49 47 40 40 42 40 40 45 53 56 52 51 59 57
155 166 173 181 187 188 181 160 154 152 143 110 358 6 27 47 52 52 57 68 74 64 60 60 57 57 54 55 55 54 53 47 40 41 39 36 39 51 55 53 57 58 60
190 193 178 175 182 177 161 151 152 155 156 159 159 307 23 58 54 39 44 61 75 74 70 68 56 54 54 53 54 57 54 46 37 39 36 33 34 48 58 60 62 62 56
209 214 196 176 189 188 180 178 174 169 173 178 197 208 160 125 120 103 79 76 95 108 105 94 76 56 53 55 55 58 60 49 38 34 33 28 34 43 45 59 64 64 65
199 212 208 205 203 198 194 190 181 181 187 186 191 185 161 142 150 153 149 144 140 142 143 131 112 86 66 73 81 80 68 52 31 21 19 22 32 45 57 58 60 60 64
206 217 224 222 211 205 199 197 192 193 195 195 189 184 180 180 180 179 180 176 159 146 143 138 125 104 88 84 98 116 122 94 350 352 11 22 30 38 54 61 66 70 66
227 221 221 220 211 205 208 213 209 204 198 194 192 193 193 191 188 188 184 177 169 163 160 160 158 155 147 129 108 100 101 46 331 344 353 9 40 52 69 77 72 78 79
260 239 225 216 213 213 217 219 218 212 203 197 196 197 195 191 190 190 185 177 174 177 177 174 171 167 165 158 147 126 84 57 10 344 21 81 97 98 97 94 89 82 85
269 255 237 224 219 216 215 218 219 213 208 204 199 196 193 193 194 191 186 182 182 184 185 187 189 182 177 172 164 148 104 49 31 70 140 129 118 118 115 104 104 92 94
Height
1509 1507 1505 1504 1503 1503 1502 1503 1503 1503 1504 1505 1505 1507 1508 1510 1511 1512 1513 1514 1515 1517 1518 1519 1519 1520 1521 1522 1523 1524 1524 1525 1526 1527 1528 1528 1529 1529 1530 1531 1532 1533 1535
1513 1511 1509 1507 1506 1506 1505 1505 1505 1505 1505 1506 1507 1508 1509 1510 1511 1512 1513 1514 1515 1516 1517 1518 1518 1519 1520 1520 1521 1521 1522 1522 1523 1524 1524 1525 1525 1526 1527 1528 1528 1529 1531
1516 1514 1512 1510 1509 1508 1507 1507 1507 1507 1507 1507 1508 1509 1510 1510 1511 1512 1513 1513 1514 1515 1516 1517 1518 1518 1519 1519 1519 1520 1520 1520 1521 1521 1522 1522 1523 1523 1524 1524 1525 1525 1526
1520 1517 1515 1513 1511 1510 1510 1509 1508 1508 1508 1509 1509 1510 1510 1511 1512 1512 1513 1513 1514 1515 1516 1517 1517 1518 1518 1519 1519 1519 1519 1519 1520 1520 1520 1521 1521 1521 1521 1521 1522 1522 1522
1523 1520 1518 1516 1515 1513 1512 1511 1510 1510 1510 1510 1510 1510 1510 1511 1512 1512 1513 1513 1514 1515 1516 1516 1517 1517 1518 1518 1518 1518 1518 1519 1519 1519 1520 1520 1519 1519 1519 1519 1519 1519 1519
1526 1523 1521 1519 1518 1516 1514 1513 1512 1512 1511 1511 1510 1510 1510 1510 1511 1511 1512 1513 1514 1514 1515 1516 1517 1518 1518 1518 1518 1519 1519 1519 1519 1520 1519 1519 1519 1518 1518 1518 1517 1517 1517
1529 1527 1524 1522 1520 1518 1517 1516 1514 1513 1512 1512 1511 1511 1510 1510 1510 1510 1511 1512 1513 1513 1515 1516 1517 1517 1518 1518 1519 1519 1519 1519 1520 1520 1520 1519 1518 1518 1518 1517 1516 1516 1516
1533 1530 1527 1525 1523 1521 1519 1518 1516 1515 1514 1513 1512 1511 1510 1510 1510 1510 1510 1511 1512 1513 1514 1515 1516 1517 1518 1518 1519 1519 1519 1519 1520 1520 1519 1519 1518 1518 1517 1517 1516 1516 1515
1536 1533 1531 1528 1526 1524 1522 1520 1519 1517 1516 1515 1514 1512 1511 1510 1510 1510 1510 1510 1511 1512 1513 1514 1515 1516 1517 1517 1518 1518 1519 1519 1519 1519 1519 1519 1518 1518 1517 1517 1516 1515 1515
1539 1537 1534 1531 1529 1526 1524 1523 1521 1520 1518 1517 1515 1514 1513 1512 1511 1510 1510 1511 1511 1512 1513 1513 1514 1515 1516 1516 1517 1518 1518 1519 1519 1519 1519 1519 1518 1518 1517 1517 1516 1516 1515
1542 1540 1537 1534 1531 1529 1527 1525 1524 1522 1521 1519 1517 1516 1514 1513 1512 1512 1511 1511 1512 1512 1513 1513 1514 1514 1515 1516 1517 1517 1518 1518 1518 1519 1519 1519 1518 1518 1517 1517 1516 1516 1515
1545 1542 1540 1537 1534 1532 1530 1528 1527 1525 1523 1522 1520 1518 1517 1515 1514 1514 1513 1513 1513 1513 1513 1514 1514 1515 1515 1516 1516 1517 1517 1518 1518 1518 1518 1518 1518 1518 1517 1517 1516 1516 1515
1547 1545 1542 1540 1538 1535 1533 1531 1529 1528 1526 1524 1523 1521 1519 1518 1517 1516 1515 1515 1515 1514 1514 1515 1515 1516 1516 1516 1517 1517 1518 1518 1518 1518 1518 1518 1518 1518 1518 1517 1517 1516 1515
1548 1547 1545 1543 1541 1539 1537 1535 1533 1531 1529 1528 1526 1524 1523 1521 1520 1519 1518 1517 1517 1517 1516 1517 1517 1517 1517 1517 1518 1518 1518 1518 1518 1518 1518 1518 1518 1518 1518 1517 1517 1516 1516
1550 1548 1547 1545 1543 1542 1540 1538 1536 1534 1533 1531 1529 1527 1526 1524 1523 1522 1521 1520 1519 1519 1519 1519 1519 1519 1519 1519 1519 1519 1519 1519 1519 1519 1519 1519 1519 1518 1518 1518 1517 1517 1516
1551 1549 1548 1547 1545 1544 1543 1541 1540 1538 1536 1534 1533 1530 1529 1527 1526 1525 1523 1522 1522 1521 1521 1520 1520 1520 1520 1520 1520 1520 1520 1520 1520 1520 1520 1519 1519 1519 1518 1518 1518 1517 1516
1551 1550 1549 1548 1547 1546 1545 1544 1542 1541 1539 1537 1535 1534 1532 1530 1528 1527 1526 1525 1524 1523 1522 1522 1522 1522 1521 1521 1521 1521 1520 1520 1520 1520 1520 1520 1520 1519 1519 1518 1518 1517 1517
1552 1551 1550 1549 1548 1547 1546 1545 1544 1543 1542 1540 1538 1536 1534 1532 1531 1529 1528 1527 1526 1525 1524 1523 1523 1523 1523 1522 1522 1521 1521 1521 1521 1520 1520 1520 1520 1519 1519 1519 1518 1518 1517
1552 1551 1550 1549 1549 1548 1547 1547 1546 1545 1543 1542 1540 1538 1537 1535 1533 1531 1530 1529 1527 1526 1526 1525 1525 1524 1524 1523 1522 1522 1521 1521 1521 1520 1520 1520 1520 1520 1520 1519 1519 1518 1518
1551 1551 1550 1549 1549 1548 1548 1547 1546 1546 1544 1543 1542 1540 1538 1537 1535 1533 1532 1530 1529 1528 1527 1526 1526 1525 1524 1524 1523 1522 1522 1521 1521 1520 1520 1520 1520 1520 1520 1520 1519 1519 1518
1551 1550 1550 1549 1549 1548 1548 1547 1547 1546 1545 1544 1543 1541 1540 1538 1536 1534 1533 1532 1531 1529 1529 1528 1527 1526 1525 1524 1524 1523 1522 1521 1521 1521 1520 1520 1520 1520 1520 1520 1519 1519 1519
1549 1549 1549 1548 1548 1548 1547 1547 1546 1546 1545 1544 1543 1542 1540 1539 1537 1535 1534 1533 1532 1531 1530 1529 1528 1527 1526 1525 1524 1523 1522 1522 1521 1521 1521 1521 1521 1521 1520 1520 1520 1519 1519
1547 1547 1547 1547 1547 1546 1546 1546 1545 1545 1545 1544 1543 1542 1540 1539 1538 1536 1535 1533 1532 1531 1530 1529 1528 1527 1527 1526 1525 1524 1523 1522 1522 1522 1522 1521 1521 1521 1521 1520 1520 1520 1519
1545 1544 1544 1545 1545 1545 1544 1544 1544 1544 1543 1543 1542 1541 1540 1539 1537 1536 1535 1533 1532 1531 1530 1530 1529 1528 1527 1526 1525 1524 1524 1523 1522 1522 1522 1522 1522 1521 1521 1521 1520 1520 1520
1542 1542 1542 1542 1542 1542 1542 1542 1542 1542 1541 1541 1541 1540 1539 1538 1537 1536 1534 1533 1532 1531 1530 1530 1529 1528 1527 1527 1526 1525 1524 1523 1523 1523 1522 1522 1522 1522 1521 1521 1521 1520 1520
1538 1538 1538 1539 1539 1539 1539 1539 1539 1539 1539 1539 1538 1538 1537 1537 1536 1535 1534 1533 1532 1531 1530 1530 1529 1528 1527 1527 1526 1525 1524 1524 1523 1523 1523 1523 1522 1522 1522 1522 1521 1521 1521